STARLINK-36725, 68285

Orbit data source: Space-Track

STARLINK-36725, 68285 is a payload satellite owned by SpaceX/Seattle (US) in LEO that was launched on Thu, 19 Mar 2026 UTC via an FALCON 9 launch vehicle from the Air Force Eastern Test Range (AFETR). Payload-class satellites include a variety of spacecraft equipped with specific instruments for various scientific and technological missions. These include communications satellites like Starlink; space stations such as the ISS; scientific satellites like the Hubble; Earth observation satellites from companies like Planet Labs, Umbra, and HawkEye 360; GPS; miniature CubeSats for education and research; and military/defense satellites.

Loading next visibility...
Identifier
68285, 2026-055Z
Orbit
LEO
Country
Flag of USUS
Related business
Manufacturer
SpaceX/Seattle
Mission
Operational spacecraft
Bus & Motor
STARLINK V2MO, Unknown motor
Mass
575 kg wet, ~530 kg dry
Launch date (UTC)
2026-03-19 (3 months ago)
Launch vehicle
FALCON 9
Launch site
Air Force Eastern Test Range (AFETR)
Object type
Payload
Rocket body
Debris
Shape & HBR
Unknown shape, 17.7 m
Radar Cross Section
Large (>1 m²)

Expand to show TLE details & history
Last TLE update: 14 hours ago

TLE from 14 hours ago
0 STARLINK-36725
1 68285U 26055Z   26171.32545838  .00017444  00000-0  52599-3 0  9995
2 68285  53.1583 202.6208 0001233 110.3427 249.7708 15.34413193 15640
Epoch: 2026-06-20T07:48Z
TLE epoch observation values (Epoch: 2026-06-20T07:48:39.604Z)
Latitude
-0.00001°
Longitude
176.91408°
Altitude
463.857 km
Speed
7.636 km/s
True Right ascension
13h 30m 28s
True Declination
0° 00' 00"
Sunlit
Object was in full shadow at epoch
Visualization orbit readout
Latitude
Unknown
Longitude
Unknown
Altitude
Unknown
Speed
Unknown
Apparent Right ascension
Unknown
Apparent Declination
Unknown
Sunlit
N/A
Visualization observer readout
Local Sidereal Time
08:32:46
Azimuth
Unknown
Elevation
Unknown
Doppler factor
Unknown
Orbital elements
Apogee altitude
463.765 km
Perigee altitude
462.078 km
Semi-major axis
6,841.058 km
Eccentricity
0.00012
Inclination
53.1583°
RAAN
202.6208°
Arg. of periapsis
110.3427°
True anomaly
249.75754°
Mean anomaly
249.7708°
Eccentric anomaly
249.76417°
Mean motion
3.83582 °/min
Orbital period
93.85 mins
BSTAR
0.00052599
Loading maneuver chart data...
Computing Atmospheric mass density...
Loading historical data...
Loading historical data...
Loading historical data...
Loading historical data...
Loading historical data...
Loading historical data...
Loading historical data...

Documentation

Showing up to 5 results
|